Regional Weather Roundup
Issued by NWS Grand Forks, ND

Home | Current Version | Previous Version | Text Only | Print | Product List | Glossary Off
Versions: 1 2 3 4 5 6 7 8 9 10 11 12 13 14 15 16 17 18 19 20 21 22 23 24 25 26 27 28 29 30 31 32 33 34 35 36 37 38 39 40 41 42 43 44 45 46 47 48 49 50

000
ASUS43 KFGF 311731
RWRFGF
PRAIRIE TO PINES  WEATHER ROUNDUP
NATIONAL WEATHER SERVICE EASTERN NORTH DAKOTA/GRAND FORKS ND
1200 PM CDT FRI OCT 31 2014

 **SATELLITE DATA USED TO AUGMENT SKY COVER AT AUTOMATED STATIONS**
 *****  WEATHER ACROSS EASTERN NORTH DAKOTA  *****

CITY           SKY/WX    TMP DP  RH WIND       PRES   REMARKS
GRAND FORKS    MOSUNNY   32  21  64 SE10      30.57F WCI  24
GRAND FRKS AFB SUNNY     33  20  58 S10       30.56F WCI  25
GRAND FRKS NWS   N/A     34 N/A N/A S7          N/A
DEVILS LAKE    SUNNY     30  16  55 S12       30.47F WCI  21
FARGO          SUNNY     32  22  66 SE7       30.59F
WAHPETON ARPT  SUNNY     32  19  59 SE3       30.59F
$$

 ***** WEATHER ACROSS CENTRAL AND WESTERN NORTH DAKOTA  *****

CITY           SKY/WX    TMP DP  RH WIND       PRES   REMARKS
BISMARCK       MOSUNNY   31  22  69 S18       30.47F WCI  19
MINOT          MOSUNNY   32  20  61 SE18G29   30.38F WCI  20
JAMESTOWN      SUNNY     30  19  63 S14       30.53F WCI  19
MINOT AFB      MOSUNNY   32  23  68 S22G30    30.37F WCI  20
GARRISON         N/A     31  24  75 S20G29    30.38F WCI  19
WILLISTON      PTSUNNY   36  27  69 SE16G25   30.21F
DICKINSON      PTSUNNY   32  22  66 S26G32    30.24F WCI  18
HETTINGER      PTSUNNY   31  24  75 SE23G30   30.29F WCI  18
$$

 *****  OTHER AIRPORT OBSERVATIONS IN OUR AREA  *****

CITY           SKY/WX    TMP DP  RH WIND       PRES   REMARKS
WALHALLA         N/A     32  18  55 S12G21    30.52F WCI  23
GRAFTON AIRPOR FAIR      32  19  59 S14       30.56F WCI  22
VALLEY CITY AR FAIR      30  21  69 S10       30.54F WCI  21
CANDO          FAIR      32  19  59 S15       30.47F WCI  22
CAVALIER APRT  FAIR      32  18  55 S13G20    30.54S WCI  22
GWINNER        SUNNY     32  21  64 SE8       30.58F WCI  25
SHEYENNE NWR     N/A     33  21  62 SE8       29.95
ROLLA          FAIR      28  18  64 S18G30    30.42F WCI  16
 ***** THE ABOVE OBSERVATIONS ARE NON NWS ARE NOT QUALITY
       CONTROLLED AND MAY MIS-REPORT RAIN FOR SNOW...
$$

  *****  WEATHER ACROSS NORTHERN MINNESOTA  *****

CITY           SKY/WX    TMP DP  RH WIND       PRES   REMARKS
FLAG ISLAND    SUNNY     32  21  64 S6        30.54F
WARROAD        SUNNY     32  25  74 S6        30.57S
ROSEAU         SUNNY     32  23  69 S6        30.57S
HALLOCK        SUNNY     34  21  60 S14       30.55F WCI  24
THF RVR FALLS  SUNNY     32  19  59 S9        30.57F WCI  24
BAUDETTE       SUNNY     31  21  66 CALM      30.57S
WASKISH        SUNNY     32  19  59 CALM      30.57S
CROOKSTON      SUNNY     34  21  60 S8        30.58F
STEPHEN NDAWN    N/A     34  21  60 S12         N/A
GREENBUSH NDAW   N/A     34  21  60 S10         N/A
$$
  *****  WEATHER ACROSS CENTRAL AND WEST MINNESOTA  *****

CITY           SKY/WX    TMP DP  RH WIND       PRES   REMARKS
FOSSTON        SUNNY     34  23  64 CALM      30.57F
BEMIDJI        SUNNY     31  18  59 CALM      30.56F
PARK RAPIDS    SUNNY     31  19  61 CALM      30.56F
ELBOW LAKE     FAIR      32  22  67 CALM      30.58F
WADENA         SUNNY     30  19  64 CALM      30.55F
DETROIT LAKES  SUNNY     32  21  64 CALM      30.57F
MOORHEAD       SUNNY     34  23  64 S7        30.59F
FERGUS FALLS   SUNNY     32  18  55 CALM      30.60F
MORRIS MN      SUNNY     34  21  60 CALM      30.59F
STAPLES        SUNNY     30  18  59 CALM      30.56F
$$
  *****  WEATHER ELSEWHERE ACROSS MINNESOTA  *****

CITY           SKY/WX    TMP DP  RH WIND       PRES   REMARKS
DULUTH         MOSUNNY   32  18  56 N12       30.52S WCI  23
INTRNTL FALLS  SUNNY     33  20  58 VRB7      30.56S
ELY            SUNNY     30  19  64 NW3       30.52F
CLOQUET        SUNNY     34  18  51 NE7       30.53F
WHEATON        SUNNY     30  21  69 E5        30.61F
BRAINERD       SUNNY     31  16  54 VRB3      30.57F
HIBBING        SUNNY     32  18  56 NE3       30.55F
ALEXANDRIA     SUNNY     32  18  56 NE7       30.58F
SAINT CLOUD    SUNNY     36  17  46 N9        30.58S
MINNEAPOLIS    SUNNY     35  17  47 N14       30.57R
$$

  *****  WEATHER ACROSS SOUTH DAKOTA  *****

CITY           SKY/WX    TMP DP  RH WIND       PRES   REMARKS
SIOUX FALLS    MOSUNNY   35  21  56 NE6       30.59S
BROOKINGS      NOT AVBL
WATERTOWN      SUNNY     31  20  63 SE7       30.55F WCI  24
HURON          SUNNY     31  19  61 VRB5      30.59F
SISSETON         N/A     30  22  72 SE6       30.58F WCI  24
ABERDEEN       SUNNY     32  19  58 SE7       30.58F
MITCHELL       SUNNY     31  22  69 VRB3      30.61F
PIERRE         SUNNY     32  20  61 S14       30.51F WCI  22
MOBRIDGE       SUNNY     34  20  56 S18       30.47F WCI  23
RAPID CITY     CLOUDY    34  29  82 S24G30    30.30F WCI  21
$$

  *****  SOME WEATHER IN NEARBY STATES *****

CITY           SKY/WX    TMP DP  RH WIND       PRES   REMARKS
GLASGOW MT     SUNNY     43  32  65 SE26G33   29.99F
GREAT FALLS MT MOSUNNY   62  31  31 S21       29.77F
CHEYENNE WY    SUNNY     38  28  67 S15       30.28F
SCOTTSBLUFF NE MOSUNNY   41  32  70 SE16G25   30.34F
OMAHA NE       SUNNY     37  19  48 N10       30.59S
DES MOINES IA  SUNNY     38  20  48 N12       30.51S
DAVENPORT IA   MOSUNNY   41  19  41 N26G40    30.35R
CHICAGO IL     CLOUDY    37  24  59 NW29G41   30.15S
EAU CLAIRE WI  CLOUDY    36  18  48 N18G29    30.48S
LA CROSSE WI   CLOUDY    38  20  48 N18G24    30.47S
$$

  *****  SOME NATIONAL WEATHER *****

CITY           SKY/WX    TMP DP  RH WIND       PRES   REMARKS
LA GUARDIA NY  CLOUDY    52  41  66 NE12      29.95F
RALEIGH NC     MOSUNNY   60  41  49 VRB3      29.90F
ATLANTA GA     PTSUNNY   59  41  51 NW9       29.92F
NEW ORLEANS LA SUNNY     73  48  41 NW13      30.05F
OKLAHOMA CITY  MOSUNNY   55  37  50 N15       30.42F
ALBUQUERQUE NM MOSUNNY   61  29  29 E15       30.37F
SALT LAKE CITY PTSUNNY   64  24  21 S17       29.98F
LOS ANGELES CA PTSUNNY   68  63  83 NE5       29.98S
BOISE ID       CLOUDY    58  34  40 SE9       29.81R
SEATTLE WA     LGT RAIN  51  49  92 SW3       29.79R
$$

*** WEATHER ACROSS MANITOBA...SASKATCHEWAN AND ONTARIO ***
                ***ONTARIO***

CITY           SKY/WX    TMP DP  RH WIND       PRES   REMARKS
GERALDTON      FLURRIES  25  21  86 NW9       30.43  WCI  15
THUNDER BAY    PTSUNNY   32  21  64 NW7       30.52S
SIOUX LOOKOUT  PTSUNNY   28  21  74 N5        30.52F WCI  23
TORONTO        LGT RAIN  43  41  93 E8        29.92F
BIG TROUT LK   CLOUDY    21  19  93 W12G20    30.43S WCI   9
PICKLE LAKE    PTSUNNY   25  18  74 W7        30.46F WCI  17
DRYDEN         MOSUNNY   27  21  80 SW7       30.53F WCI  19
KENORA         MOSUNNY   28  19  69 SW6       30.54F WCI  22
$$
                *** MANITOBA***

CITY           SKY/WX    TMP DP  RH WIND       PRES   REMARKS
BRANDON        PTSUNNY   30  18  59 S15       30.43F WCI  19
DAUPHIN        SUNNY     32  23  69 SE9       30.36F WCI  24
ISLAND LAKE    MOSUNNY   30  25  80 SW10      30.43F WCI  21
PILOT MOUND      N/A     30  19  64 S20         N/A  WCI  18
THE PAS        CLOUDY    32  23  69 S17G24    30.21F WCI  21
THOMPSON       MOSUNNY   30  25  80 S9        30.24F WCI  22
WINNIPEG       MOSUNNY   30  19  64 S12G18    30.54F WCI  21
LYNN LAKE      SUNNY     30  21  69 S12G18    30.06F WCI  21
CHURCHILL      PTSUNNY   28  23  80 W13G18    30.12F WCI  18
GILLAM         PTSUNNY   27  21  80 SW9       30.28F WCI  17
$$
                ***SASKATCHEWAN***

CITY           SKY/WX    TMP DP  RH WIND       PRES   REMARKS
ESTEVAN        CLOUDY    32  25  74 SE20G30   30.21F WCI  20
KINDERSLEY     PTSUNNY   41  34  75 S17G26    29.76F
LLOYDMINSTER   PTSUNNY   41  34  75 SE17G24   29.70F
PRINCE ALBERT  CLOUDY    34  27  75 S14G21    29.99F WCI  24
REGINA         CLOUDY    28  25  86 SE23G36   30.09F WCI  14
YORKTON        SUNNY     28  23  80 S20G29    30.22F WCI  15
N. BATTLEFORD  SUNNY     39  34  81 SE21G26   29.83F
LA RONGE       CLOUDY    30  25  80 SE16G23   29.95F WCI  19
SASKATOON      PTSUNNY   39  30  70 S17G28    29.92F
SWIFT CURRENT  MOSUNNY   41  34  75 S38G45    29.79F
$$
NOTE: THESE ARE AUTOMATED STATIONS WITH LIMITED QUALITY CONTROL
      "FAIR" INDICATES FEW OR NO CLOUDS BELOW 12,000 FEET WITH NO
      SIGNIFICANT WEATHER AND/OR OBSTRUCTIONS TO VISIBILITY.
      SKY/WX - SKY CONDITION AND SIGNIFICANT WEATHER.
      TMP - AIR TEMPERATURE.    DP   - DEWPOINT TEMPERATURE.
      RH  - RELATIVE HUMIDITY.  PRES - PRESSURE.
      HX  - HEAT INDEX.         WCI  - WIND CHILL INDEX.
$



USA.gov is the U.S. government's official web portal to all federal, state and local government web resources and services.